sat.trackr.live / text

‹ back to catalog

GLOBALSTAR M085

NORAD 37742 · 2011-033D

PAYLOAD ACTIVE UNKNOWN

§ Identity

Operator
Country
GLOB
Launch date
2011-07-13
Launch site
TYMSC
Launch vehicle
Mass (kg)
RCS (m²)
5.00

Purposes: comms

External: N2YO · Heavens-Above · Gunter

§ Orbital elements

Epoch: 2026-09-09T02:47:45.287232Z

Period
114.08 min
Inclination
52.0130°
Eccentricity
0.0000573
Mean motion
12.62265125 rev/d
Perigee alt
1,413.2 km
Apogee alt
1,414.1 km
Semi-major
7,791.7 km
B*
1.4636e-4
RAAN
297.7667°
Arg perigee
118.0124°
Mean anomaly
267.0728°
Rev number
70,039

§ Raw data

GLOBALSTAR M0851 37742U 11033D   26252.11649638 -.00000078  00000+0  14636-3 0  99942 37742  52.0130 297.7667 0000573 118.0124 267.0728 12.62265125700395

JSON: /api/v1/satellites/37742 · /tle

For live sub-satellite position, see the globe view (requires WebGL).

§ Visibility from observer

Set your observer location to see the next 7 days of passes ≥ 10°. The values pass through the URL so the page stays shareable.

No JS? Fill the form by hand. The geolocation button needs JavaScript.